Location: Port Colborne
(42.8865°N, 79.2509°W)
Time: 01:51:32
(UTC-04:00)

OTV 5 (USA 277) - Pass Details

Date: 27 August 2019
Orbit: 310 x 324 km, 54.5° (Epoch: 08 October)

Event Time Altitude Azimuth Distance (km) Brightness Sun altitude
Rises 22:15:49 0° 287° (WNW) 2,036 ? -22.8°
Reaches altitude 10° 22:19:09 10° 333° (NNW) 1,207 ? -23.3°
Maximum altitude 22:19:41 10° 344° (NNW) 1,185 ? -23.4°
Drops below altitude 10° 22:20:14 10° 356° (N) 1,207 ? -23.5°
Enters shadow 22:20:48 - 7° (N) 1,277 ? -23.5°
